Location: Unspecified
(0.0000°N, 0.0000°E)
Time: 14:07:48
(UTC+00:00)

CZ-3B DEB - Pass Details

Date: 19 February 2026
Orbit: 979 x 42142 km, 20.1° (Epoch: 15 November)

Event Time Altitude Azimuth Distance (km) Brightness Sun altitude
Rises 08:01:38 0° 283° (WNW) 8,708 ? 26.4°
Reaches altitude 10° 08:05:23 10° 281° (WNW) 8,766 ? 27.3°
Maximum altitude 09:29:54 68° 233° (SW) 23,155 ? 47.8°
Enters shadow 20:23:57 43° 19° (NNE) 2,251 ? -31.9°
